sat.trackr.live / text

‹ back to catalog

BLUEWALKER-3

NORAD 53807 · 2022-111AL

PAYLOAD ACTIVE UNKNOWN

§ Identity

Operator
Country
US
Launch date
2022-09-11
Launch site
AFETR
Launch vehicle
Mass (kg)
RCS (m²)

External: N2YO · Heavens-Above · Gunter

§ Orbital elements

Epoch: 2026-09-20T14:09:15.094656Z

Period
93.55 min
Inclination
53.2287°
Eccentricity
0.0007107
Mean motion
15.39308093 rev/d
Perigee alt
443.3 km
Apogee alt
453.0 km
Semi-major
6,826.3 km
B*
1.1598e-4
RAAN
305.7174°
Arg perigee
108.1101°
Mean anomaly
252.0680°
Rev number
22,489

§ Raw data

BLUEWALKER-31 53807U 22111AL  26263.58975804  .00004195  00000+0  11598-3 0  99902 53807  53.2287 305.7174 0007107 108.1101 252.0680 15.39308093224895

JSON: /api/v1/satellites/53807 · /tle

For live sub-satellite position, see the globe view (requires WebGL).

§ Visibility from observer

Set your observer location to see the next 7 days of passes ≥ 10°. The values pass through the URL so the page stays shareable.

No JS? Fill the form by hand. The geolocation button needs JavaScript.

§ Radio — SatNOGS DB

ModeDescriptionDownlinkUplink
QPSK Channel 62 759.700 MHz
QPSK Downlink 1 2.026 GHz
QPSK Downlink 2 2.210 GHz
GMSK Mode S TTC CCSDS 2.245 GHz
GFSK Mode U 2k4 TLM 437.500 MHz
FM Service 1 763.000 MHz
FM Service 2 892.000 MHz
FM UHD1 400.575 MHz
GFSK Mode U 9k6 TLM (inactive) 437.500 MHz

9 transmitters · refreshed weekly from db.satnogs.org